Weather History for Mountain Home, ID

Change the Weather History Date:

Thursday, January 31, 2013

  Actual Average Record
Temperature  
Mean Temperature 40 °F 32 °F  
Max Temperature 51 °F 40 °F 60 °F (1971)
Min Temperature 30 °F 23 °F -14 °F (1956)
Degree Days  
Heating Degree Days 24 33  
Month to date heating degree days 1359 1070  
Cooling Degree Days 0 0  
Month to date cooling degree days 0 0  
Moisture  
Dew Point 34 °F    
Average Humidity 94    
Maximum Humidity 100    
Minimum Humidity 58    
Precipitation  
Precipitation T in 0.04 in 0.48 in (1963)
Month to date precipitation 0.22  
Sea Level Pressure  
Sea Level Pressure 30.32 in    
Wind  
Wind Speed 6 mph (NW)    
Max Wind Speed 13 mph    
Max Gust Speed -    
Visibility 10 miles    
Events      
T = Trace of Precipitation, MM = Missing Value Source: NWS Daily Summary

Daily Weather History Graph

Daily Weather History Graph

Search for Another Location

Airport:

Trip Planner

Search our weather history database for the weather conditions in past years. The results will help you decide how hot, cold, wet, or windy it might be!

Date:

Astronomy

Jan. 31, 2013 Rise Set
Actual Time 7:59 AM MST 5:55 PM MST
Civil Twilight 7:29 AM MST 6:25 PM MST
Nautical Twilight 6:55 AM MST 6:59 PM MST
Astronomical Twilight 6:21 AM MST 7:32 PM MST
Moon 11:12 PM MST (1/31) 9:52 AM MST (1/31)
Length of Visible Light 10h 56m
Length of Day
9h 55m
Waning Gibbous, 79% of the Moon is Illuminated
Jan 31
Waning Gibbous
Feb 3
Last Quarter
Feb 10
New
Feb 17
First Quarter
Feb 25
Full

Hourly Weather History & Observations

Time (MST) Temp. Windchill Dew Point Humidity Pressure Visibility Wind Dir Wind Speed Gust Speed Precip Events Conditions
12:08 AM 33.8 °F 26.4 °F 33.8 °F 100% 30.29 in 10.0 mi NW 9.2 mph - N/A   Scattered Clouds
12:58 AM 32.9 °F 25.3 °F 32.9 °F 100% 30.35 in 10.0 mi NW 9.2 mph - N/A   Clear
1:58 AM 36.3 °F 28.0 °F 36.3 °F 100% 30.34 in 10.0 mi NNW 12.7 mph - N/A   Mostly Cloudy
2:13 AM 35.6 °F 28.0 °F 35.6 °F 100% 30.30 in 10.0 mi NNW 10.4 mph - N/A   Scattered Clouds
2:33 AM 33.8 °F 27.7 °F 33.8 °F 100% 30.31 in 10.0 mi NW 6.9 mph - N/A   Mostly Cloudy
2:58 AM 33.4 °F 28.1 °F 33.4 °F 100% 30.36 in 10.0 mi NW 5.8 mph - N/A   Overcast
3:18 AM 35.6 °F 28.6 °F 35.6 °F 100% 30.32 in 10.0 mi WNW 9.2 mph - N/A   Overcast
3:53 AM 35.6 °F 29.2 °F 35.6 °F 100% 30.32 in 10.0 mi NW 8.1 mph - N/A   Mostly Cloudy
3:58 AM 35.1 °F 30.1 °F 35.1 °F 100% 30.37 in 10.0 mi West 5.8 mph - N/A   Mostly Cloudy
4:28 AM 35.6 °F 31.7 °F 35.6 °F 100% 30.31 in 10.0 mi West 4.6 mph - N/A   Overcast
4:58 AM 35.6 °F 30.7 °F 35.6 °F 100% 30.36 in 10.0 mi NW 5.8 mph - N/A   Mostly Cloudy
5:03 AM 35.6 °F 30.7 °F 35.6 °F 100% 30.31 in 10.0 mi NW 5.8 mph - N/A   Overcast
5:33 AM 33.8 °F 28.6 °F 33.8 °F 100% 30.31 in 10.0 mi NW 5.8 mph - N/A   Overcast
5:58 AM 33.6 °F 27.5 °F 33.6 °F 100% 30.37 in 10.0 mi West 6.9 mph - N/A   Overcast
6:28 AM 32.0 °F 27.5 °F 32.0 °F 100% 30.31 in 10.0 mi WNW 4.6 mph - N/A   Mostly Cloudy
6:33 AM 32.0 °F 26.4 °F 32.0 °F 100% 30.31 in 10.0 mi WNW 5.8 mph - N/A   Scattered Clouds
6:58 AM 32.0 °F 27.5 °F 31.8 °F 99% 30.38 in 10.0 mi West 4.6 mph - N/A   Partly Cloudy
7:08 AM 32.0 °F - 32.0 °F 100% 30.32 in 10.0 mi NW 1.2 mph - N/A   Mostly Cloudy
7:58 AM 33.8 °F - 33.8 °F 100% 30.39 in 10.0 mi WNW 2.3 mph - N/A   Overcast
8:08 AM 32.0 °F 28.7 °F 32.0 °F 100% 30.33 in 10.0 mi West 3.5 mph - N/A   Overcast
8:28 AM 32.0 °F - 32.0 °F 100% 30.33 in 10.0 mi West 1.2 mph - N/A   Overcast
8:58 AM 33.3 °F - 33.3 °F 100% 30.39 in 10.0 mi WNW 2.3 mph - N/A   Overcast
9:58 AM 38.5 °F - 38.5 °F 100% 30.39 in 10.0 mi SW 2.3 mph - N/A   Overcast
10:58 AM 41.7 °F - 41.7 °F 100% 30.39 in 10.0 mi Calm Calm - N/A   Overcast
11:28 AM 42.8 °F 41.1 °F 42.8 °F 100% 30.34 in 10.0 mi North 3.5 mph - N/A   Overcast
11:58 AM 44.4 °F 40.0 °F 44.4 °F 100% 30.38 in 10.0 mi North 8.1 mph - N/A   Overcast
12:08 PM 44.6 °F 40.7 °F 44.6 °F 100% 30.33 in 10.0 mi Variable 6.9 mph - N/A   Overcast
12:58 PM 46.0 °F 41.9 °F 45.5 °F 98% 30.36 in 10.0 mi NW 8.1 mph - N/A   Mostly Cloudy
1:58 PM 45.9 °F 43.6 °F 45.9 °F 100% 30.32 in 10.0 mi NNW 4.6 mph - N/A   Overcast
2:58 PM 51.1 °F - 36.9 °F 58% 30.31 in 10.0 mi NNW 9.2 mph - N/A   Mostly Cloudy
3:58 PM 48.0 °F - 35.4 °F 62% 30.30 in 10.0 mi North 8.1 mph - N/A   Mostly Cloudy
4:58 PM 46.6 °F - 34.7 °F 63% 30.30 in 10.0 mi NNW 9.2 mph - N/A   Mostly Cloudy
5:58 PM 43.9 °F 39.9 °F 33.8 °F 68% 30.30 in 10.0 mi NW 6.9 mph - N/A   Scattered Clouds
6:58 PM 38.5 °F - 32.5 °F 79% 30.31 in 10.0 mi North 2.3 mph - N/A   Scattered Clouds
7:58 PM 36.3 °F - 31.1 °F 81% 30.32 in 10.0 mi NNW 2.3 mph - N/A   Mostly Cloudy
8:58 PM 34.0 °F - 30.2 °F 86% 30.32 in 10.0 mi North 1.2 mph - N/A   Scattered Clouds
9:13 PM 32.0 °F - 30.2 °F 93% 30.26 in 10.0 mi North 2.3 mph - N/A   Mostly Cloudy
9:58 PM 33.8 °F - 30.2 °F 87% 30.31 in 10.0 mi North 1.2 mph - N/A   Overcast
10:03 PM 32.0 °F 26.4 °F 30.2 °F 93% 30.25 in 10.0 mi South 5.8 mph - N/A   Overcast
10:23 PM 32.0 °F - 28.4 °F 87% 30.25 in 10.0 mi NNE 1.2 mph - N/A   Overcast
10:43 PM 32.0 °F 28.7 °F 28.4 °F 87% 30.24 in 10.0 mi SSE 3.5 mph - N/A   Mostly Cloudy
10:58 PM 30.7 °F 27.3 °F 28.4 °F 91% 30.29 in 10.0 mi SE 3.5 mph - N/A   Mostly Cloudy
11:03 PM 32.0 °F - 30.2 °F 93% 30.24 in 10.0 mi SSE 2.3 mph - N/A   Scattered Clouds
11:58 PM 30.4 °F 26.9 °F 28.4 °F 92% 30.30 in 10.0 mi NNE 3.5 mph - 0.00 in   Light Freezing Rain